CW1411 Weather Reports


Display with metric or nautical units.
time (UTC)temp
F
wind
direction
speed
MPH
gust
MPH
rain 1hr
in
rain 24hr
in
rain mn
in
humidity
%
barometer
mb
20170924211752 91 5 0.0 0.0 0.00 0.00 0.00 59 1015.3
20170924211236 91 5 0.0 0.0 0.00 0.00 0.00 60 1015.3
20170924210734 90 5 0.0 0.0 0.00 0.00 0.00 61 1015.3
20170924210229 90 5 0.0 0.0 0.00 0.00 0.00 60 1015.4
20170924205727 90 5 0.0 0.0 0.00 0.00 0.00 61 1015.4
20170924205226 90 5 0.0 0.0 0.00 0.00 0.00 60 1015.4
20170924204726 90 5 0.0 0.0 0.00 0.00 0.00 59 1015.4
20170924204220 90 5 0.0 0.0 0.00 0.00 0.00 60 1015.5
20170924203718 90 5 0.0 0.0 0.00 0.00 0.00 59 1015.4
20170924203220 90 9 0.0 0.0 0.00 0.00 0.00 59 1015.7
20170924202711 90 9 0.0 0.0 0.00 0.00 0.00 58 1015.6
20170924202211 90 5 0.0 0.0 0.00 0.00 0.00 56 1015.6
20170924201710 90 5 0.0 0.0 0.00 0.00 0.00 58 1015.8
20170924201208 91 5 0.0 1.0 0.00 0.00 0.00 55 1015.9
20170924200652 91 9 0.0 1.0 0.00 0.00 0.00 56 1015.9
20170924200150 92 5 0.0 0.0 0.00 0.00 0.00 56 1015.9
20170924195640 92 5 0.0 0.0 0.00 0.00 0.00 57 1016.0
20170924195136 92 5 0.0 0.0 0.00 0.00 0.00 54 1016.0
20170924194615 92 5 0.0 0.0 0.00 0.00 0.00 52 1015.9
20170924194110 92 9 0.0 1.0 0.00 0.00 0.00 53 1016.0
20170924193605 92 9 0.0 1.0 0.00 0.00 0.00 50 1016.0
20170924193104 92 5 1.0 4.0 0.00 0.00 0.00 52 1016.2
20170924192554 92 9 1.0 4.0 0.00 0.00 0.00 51 1016.2
20170924192042 92 9 0.0 3.0 0.00 0.00 0.00 51 1016.2
20170924191542 91 5 0.0 3.0 0.00 0.00 0.00 52 1016.3
20170924191040 91 9 0.0 1.0 0.00 0.00 0.00 53 1016.4
20170924190537 91 5 0.0 1.0 0.00 0.00 0.00 55 1016.5
20170924190038 91 5 0.0 3.0 0.00 0.00 0.00 56 1016.6
20170924185534 90 5 1.0 3.0 0.00 0.00 0.00 55 1016.6
20170924185030 90 5 1.0 4.0 0.00 0.00 0.00 54 1016.6
20170924184525 90 5 1.0 5.0 0.00 0.00 0.00 53 1016.6
20170924184026 90 5 1.0 5.0 0.00 0.00 0.00 54 1016.6
20170924183522 90 5 1.0 4.0 0.00 0.00 0.00 54 1016.6
20170924183024 90 9 0.0 4.0 0.00 0.00 0.00 57 1016.7
20170924182519 90 9 1.0 4.0 0.00 0.00 0.00 54 1016.7
20170924182020 89 5 1.0 5.0 0.00 0.00 0.00 54 1016.7
20170924181520 89 5 1.0 5.0 0.00 0.00 0.00 56 1016.7
20170924181021 89 5 0.0 1.0 0.00 0.00 0.00 60 1016.7
20170924180509 89 5 0.0 3.0 0.00 0.00 0.00 59 1016.8
20170924180006 88 5 0.0 3.0 0.00 0.00 0.00 57 1016.8
20170924175446 88 9 0.0 3.0 0.00 0.00 0.00 58 1016.8
20170924174934 88 5 0.0 3.0 0.00 0.00 0.00 58 1016.9
20170924174441 87 5 0.0 2.0 0.00 0.00 0.00 60 1016.9
20170924173936 87 5 1.0 4.0 0.00 0.00 0.00 59 1017.0
20170924173441 87 5 1.0 4.0 0.00 0.00 0.00 59 1017.1
20170924172936 87 5 0.0 3.0 0.00 0.00 0.00 58 1017.1
20170924172436 87 5 0.0 3.0 0.00 0.00 0.00 59 1017.2
20170924171935 87 9 0.0 3.0 0.00 0.00 0.00 58 1017.2
20170924171436 87 9 0.0 4.0 0.00 0.00 0.00 61 1017.3
20170924170930 87 9 1.0 5.0 0.00 0.00 0.00 58 1017.4
20170924170420 87 9 0.0 5.0 0.00 0.00 0.00 58 1017.4
20170924165914 87 9 0.0 2.0 0.00 0.00 0.00 60 1017.5
20170924165412 87 9 0.0 4.0 0.00 0.00 0.00 58 1017.5
20170924164911 87 5 0.0 4.0 0.00 0.00 0.00 60 1017.4
20170924164412 87 5 1.0 4.0 0.00 0.00 0.00 60 1017.5
20170924163908 87 5 1.0 5.0 0.00 0.00 0.00 60 1017.6
20170924163405 87 9 1.0 5.0 0.00 0.00 0.00 59 1017.6
20170924162906 86 9 0.0 1.0 0.00 0.00 0.00 62 1017.6
20170924162406 86 9 0.0 4.0 0.00 0.00 0.00 61 1017.6
20170924161903 85 5 0.0 4.0 0.00 0.00 0.00 62 1017.7
20170924161402 85 5 0.0 1.0 0.00 0.00 0.00 63 1017.7
20170924160903 84 9 0.0 4.0 0.00 0.00 0.00 64 1017.9
20170924160404 84 5 1.0 5.0 0.00 0.00 0.00 64 1017.9
20170924155856 83 5 1.0 5.0 0.00 0.00 0.00 64 1018.0
20170924155353 83 9 0.0 2.0 0.00 0.00 0.00 67 1018.1
20170924154852 82 5 0.0 2.0 0.00 0.00 0.00 67 1018.0
20170924154350 81 5 0.0 1.0 0.00 0.00 0.00 68 1018.0
20170924153844 80 5 0.0 1.0 0.00 0.00 0.00 70 1018.1
20170924153338 80 9 0.0 2.0 0.00 0.00 0.00 72 1018.2
20170924152840 78 9 0.0 3.0 0.00 0.00 0.00 72 1018.2
20170924152340 78 5 1.0 4.0 0.00 0.00 0.00 75 1018.2
20170924151836 76 5 1.0 4.0 0.00 0.00 0.00 77 1018.3
20170924151332 76 5 0.0 2.0 0.00 0.00 0.00 79 1018.3
20170924150830 75 5 0.0 3.0 0.00 0.00 0.00 81 1018.4
20170924150321 74 5 0.0 4.0 0.00 0.00 0.00 82 1018.4
20170924145817 73 5 0.0 4.0 0.00 0.00 0.00 84 1018.3
20170924145312 72 5 1.0 4.0 0.00 0.00 0.00 86 1018.4
20170924144808 71 9 1.0 4.0 0.00 0.00 0.00 89 1018.3
20170924144307 71 5 1.0 4.0 0.00 0.00 0.00 92 1018.4
20170924143805 70 5 1.0 4.0 0.00 0.00 0.00 92 1018.4
20170924143303 69 5 0.0 3.0 0.00 0.00 0.00 94 1018.4
20170924142757 69 5 0.0 2.0 0.00 0.00 0.00 94 1018.5
20170924142256 68 5 0.0 0.0 0.00 0.00 0.00 95 1018.5
20170924141752 68 9 0.0 1.0 0.00 0.00 0.00 95 1018.5
20170924141248 67 5 0.0 1.0 0.00 0.00 0.00 95 1018.6
20170924140732 67 9 0.0 1.0 0.00 0.00 0.00 95 1018.5
20170924140230 67 9 0.0 1.0 0.00 0.00 0.00 95 1018.6
20170924135730 66 5 0.0 1.0 0.00 0.00 0.00 95 1018.6
20170924135223 66 5 0.0 1.0 0.00 0.00 0.00 95 1018.7
20170924134723 65 5 0.0 1.0 0.00 0.00 0.00 95 1018.7
20170924134224 65 5 0.0 1.0 0.00 0.00 0.00 95 1018.7
20170924133710 65 5 0.0 2.0 0.00 0.00 0.00 95 1018.7
20170924133212 65 5 0.0 2.0 0.00 0.00 0.00 95 1018.6
20170924132705 64 5 0.0 1.0 0.00 0.00 0.00 95 1018.6
20170924132158 64 5 0.0 0.0 0.00 0.00 0.00 95 1018.7
20170924131658 64 9 0.0 0.0 0.00 0.00 0.00 95 1018.7
20170924131158 63 9 0.0 0.0 0.00 0.00 0.00 95 1018.6
20170924130658 63 9 0.0 0.0 0.00 0.00 0.00 95 1018.7
20170924130158 62 5 0.0 0.0 0.00 0.00 0.00 95 1018.8
20170924125700 62 5 0.0 0.0 0.00 0.00 0.00 95 1018.9
20170924125159 62 5 0.0 0.0 0.00 0.00 0.00 95 1018.8
20170924124644 62 5 0.0 0.0 0.00 0.00 0.00 95 1018.8
20170924124146 61 5 0.0 0.0 0.00 0.00 0.00 94 1018.7
20170924123642 61 5 0.0 0.0 0.00 0.00 0.00 94 1018.8
20170924123141 61 5 0.0 0.0 0.00 0.00 0.00 94 1018.9
20170924122642 60 9 0.0 0.0 0.00 0.00 0.00 94 1018.9
20170924122137 60 5 0.0 0.0 0.00 0.00 0.00 94 1018.9
20170924121634 60 9 0.0 0.0 0.00 0.00 0.00 94 1018.9
20170924121134 60 9 0.0 0.0 0.00 0.00 0.00 94 1018.9
20170924120620 60 9 0.0 0.0 0.00 0.00 0.00 94 1018.9
20170924120112 59 5 0.0 0.0 0.00 0.00 0.00 94 1018.9
20170924115608 59 9 0.0 0.0 0.00 0.00 0.00 94 1018.9
20170924115109 59 9 0.0 0.0 0.00 0.00 0.00 94 1018.9
20170924114610 59 5 0.0 0.0 0.00 0.00 0.00 94 1018.9
20170924114104 59 5 0.0 0.0 0.00 0.00 0.00 94 1018.9
20170924113559 59 5 0.0 0.0 0.00 0.00 0.00 93 1018.9
20170924113054 59 9 0.0 0.0 0.00 0.00 0.00 93 1018.9
20170924112552 59 5 0.0 0.0 0.00 0.00 0.00 93 1018.9
20170924112052 59 5 0.0 0.0 0.00 0.00 0.00 93 1019.0
20170924111552 59 5 0.0 0.0 0.00 0.00 0.00 93 1019.0
20170924111049 59 5 0.0 0.0 0.00 0.00 0.00 93 1018.9
20170924110543 59 5 0.0 0.0 0.00 0.00 0.00 93 1018.9
20170924110043 59 9 0.0 0.0 0.00 0.00 0.00 93 1018.8
20170924105540 59 9 0.0 0.0 0.00 0.00 0.00 93 1018.7
20170924105034 59 5 0.0 0.0 0.00 0.00 0.00 93 1018.6
20170924104524 59 5 0.0 0.0 0.00 0.00 0.00 93 1018.5
20170924104004 59 5 0.0 0.0 0.00 0.00 0.00 93 1018.5
20170924103502 59 5 0.0 0.0 0.00 0.00 0.00 93 1018.5
20170924102941 59 5 0.0 0.0 0.00 0.00 0.00 93 1018.5
20170924102437 59 5 0.0 0.0 0.00 0.00 0.00 93 1018.5
20170924101924 59 5 0.0 0.0 0.00 0.00 0.00 93 1018.5
20170924101418 59 5 0.0 0.0 0.00 0.00 0.00 93 1018.5
20170924100904 59 5 0.0 0.0 0.00 0.00 0.00 93 1018.4
20170924100356 59 5 0.0 0.0 0.00 0.00 0.00 93 1018.4
20170924095855 59 5 0.0 0.0 0.00 0.00 0.00 93 1018.4
20170924095353 59 5 0.0 0.0 0.00 0.00 0.00 93 1018.3
20170924094807 59 5 0.0 0.0 0.00 0.00 0.00 93 1018.4
20170924094303 60 5 0.0 0.0 0.00 0.00 0.00 92 1018.3
20170924093753 60 5 0.0 0.0 0.00 0.00 0.00 92 1018.2
20170924093248 60 5 0.0 0.0 0.00 0.00 0.00 93 1018.3
20170924092725 60 5 0.0 0.0 0.00 0.00 0.00 93 1018.3
20170924092221 60 5 0.0 0.0 0.00 0.00 0.00 92 1018.2
20170924091707 60 5 0.0 0.0 0.00 0.00 0.00 92 1018.1
20170924091208 60 5 0.0 0.0 0.00 0.00 0.00 92 1018.1
20170924090653 60 5 0.0 0.0 0.00 0.00 0.00 92 1018.2
20170924090143 60 5 0.0 0.0 0.00 0.00 0.00 92 1018.1
20170924085641 60 5 0.0 0.0 0.00 0.00 0.00 92 1018.1
20170924085126 60 5 0.0 0.0 0.00 0.00 0.00 92 1018.2
20170924084621 60 5 0.0 0.0 0.00 0.00 0.00 92 1018.1
20170924084101 60 5 0.0 0.0 0.00 0.00 0.00 92 1018.1
20170924083551 60 5 0.0 0.0 0.00 0.00 0.00 92 1018.1
20170924083046 60 5 0.0 0.0 0.00 0.00 0.00 92 1018.1
20170924082547 60 5 0.0 0.0 0.00 0.00 0.00 92 1018.1
20170924082033 60 5 0.0 0.0 0.00 0.00 0.00 92 1018.0
20170924081530 60 5 0.0 0.0 0.00 0.00 0.00 92 1018.1
20170924081029 61 5 0.0 0.0 0.00 0.00 0.00 92 1017.9
20170924080510 61 5 0.0 0.0 0.00 0.00 0.00 92 1017.9
20170924080007 61 5 0.0 0.0 0.00 0.00 0.00 92 1017.9
20170924075506 61 5 0.0 0.0 0.00 0.00 0.00 92 1017.8
20170924075006 61 5 0.0 0.0 0.00 0.00 0.00 92 1017.8
20170924074504 61 5 0.0 0.0 0.00 0.00 0.00 92 1017.7
20170924073932 61 5 0.0 0.0 0.00 0.00 0.00 92 1017.8
20170924073429 61 5 0.0 0.0 0.00 0.00 0.00 92 1017.6
20170924072929 61 5 0.0 0.0 0.00 0.00 0.00 92 1017.6
20170924072423 61 5 0.0 0.0 0.00 0.00 0.00 92 1017.6
20170924071921 61 5 0.0 0.0 0.00 0.00 0.00 92 1017.6
20170924071421 61 5 0.0 0.0 0.00 0.00 0.00 92 1017.6
20170924070917 61 5 0.0 0.0 0.00 0.00 0.00 92 1017.6
20170924070404 61 5 0.0 0.0 0.00 0.00 0.00 92 1017.4
20170924065852 61 5 0.0 0.0 0.00 0.00 0.00 92 1017.5
20170924065335 61 5 0.0 0.0 0.00 0.00 0.00 92 1017.6
20170924064835 61 5 0.0 0.0 0.00 0.00 0.00 92 1017.5
20170924064312 61 5 0.0 0.0 0.00 0.00 0.00 92 1017.5
20170924063807 62 5 0.0 0.0 0.00 0.00 0.00 92 1017.5
20170924063304 62 5 0.0 0.0 0.00 0.00 0.00 92 1017.5
20170924062804 62 5 0.0 0.0 0.00 0.00 0.00 92 1017.4
20170924062303 62 5 0.0 0.0 0.00 0.00 0.00 92 1017.5
20170924061803 62 5 0.0 0.0 0.00 0.00 0.00 92 1017.4
20170924061302 62 5 0.0 0.0 0.00 0.00 0.00 92 1017.5
20170924060803 62 5 0.0 0.0 0.00 0.00 0.00 92 1017.5
20170924060259 62 5 0.0 0.0 0.00 0.00 0.00 91 1017.4
20170924055747 62 5 0.0 0.0 0.00 0.00 0.00 91 1017.5
20170924055245 62 5 0.0 0.0 0.00 0.00 0.00 91 1017.5
20170924054707 62 5 0.0 0.0 0.00 0.00 0.00 91 1017.5
20170924054207 62 5 0.0 0.0 0.00 0.00 0.00 91 1017.4
20170924053657 62 5 0.0 0.0 0.00 0.00 0.00 91 1017.6
20170924053153 62 5 0.0 0.0 0.00 0.00 0.00 91 1017.6
20170924052619 62 5 0.0 0.0 0.00 0.00 0.00 91 1017.6
20170924052119 62 5 0.0 0.0 0.00 0.00 0.00 91 1017.7
20170924051609 62 5 0.0 0.0 0.00 0.00 0.00 91 1017.6
20170924051109 62 5 0.0 0.0 0.00 0.00 0.00 91 1017.6
20170924050603 62 5 0.0 0.0 0.00 0.00 0.00 91 1017.5
20170924050102 62 5 0.0 0.0 0.00 0.00 0.00 91 1017.7
20170924045559 63 5 0.0 0.0 0.00 0.00 0.00 91 1017.7
20170924045043 63 5 0.0 0.0 0.00 0.00 0.00 90 1017.6
20170924044537 63 5 0.0 0.0 0.00 0.00 0.00 91 1017.7
20170924044015 63 5 0.0 0.0 0.00 0.00 0.00 90 1017.6
20170924043511 63 5 0.0 0.0 0.00 0.00 0.00 90 1017.6
20170924043009 63 5 0.0 0.0 0.00 0.00 0.00 90 1017.6
20170924042508 63 5 0.0 0.0 0.00 0.00 0.00 90 1017.7
20170924041954 63 5 0.0 0.0 0.00 0.00 0.00 90 1017.6
20170924041452 63 5 0.0 0.0 0.00 0.00 0.00 90 1017.6
20170924040942 63 5 0.0 0.0 0.00 0.00 0.00 90 1017.6
20170924040428 63 5 0.0 0.0 0.00 0.00 0.00 90 1017.5
20170924035920 63 5 0.0 0.0 0.00 0.00 0.00 90 1017.5
20170924035408 64 5 0.0 0.0 0.00 0.00 0.00 90 1017.5
20170924034907 64 5 0.0 0.0 0.00 0.00 0.00 90 1017.5
20170924034404 64 5 0.0 0.0 0.00 0.00 0.00 90 1017.5
20170924033908 64 5 0.0 0.0 0.00 0.00 0.00 90 1017.4
20170924033401 64 5 0.0 0.0 0.00 0.00 0.00 90 1017.3
20170924032843 64 5 0.0 0.0 0.00 0.00 0.00 89 1017.4
20170924032332 64 5 0.0 0.0 0.00 0.00 0.00 89 1017.4
20170924031820 64 5 0.0 0.0 0.00 0.00 0.00 89 1017.5
20170924031307 64 5 0.0 0.0 0.00 0.00 0.00 90 1017.5
20170924030808 64 5 0.0 0.0 0.00 0.00 0.00 89 1017.5
20170924030308 64 5 0.0 0.0 0.00 0.00 0.00 89 1017.5
20170924025756 64 5 0.0 0.0 0.00 0.00 0.00 89 1017.5
20170924025244 64 5 0.0 0.0 0.00 0.00 0.00 89 1017.4
20170924024729 64 5 0.0 0.0 0.00 0.00 0.00 89 1017.4
20170924024228 64 5 0.0 0.0 0.00 0.00 0.00 89 1017.3
20170924023728 65 5 0.0 0.0 0.00 0.00 0.00 89 1017.2
20170924023217 65 5 0.0 1.0 0.00 0.00 0.00 89 1017.2
20170924022716 65 5 0.0 1.0 0.00 0.00 0.00 89 1017.2
20170924022200 65 5 0.0 1.0 0.00 0.00 0.00 88 1017.2
20170924021648 65 5 0.0 1.0 0.00 0.00 0.00 88 1017.0
20170924021136 65 5 0.0 0.0 0.00 0.00 0.00 88 1017.0
20170924020620 65 5 0.0 0.0 0.00 0.00 0.00 88 1017.0
20170924020120 65 5 0.0 0.0 0.00 0.00 0.00 88 1016.9
20170924015620 65 5 0.0 0.0 0.00 0.00 0.00 88 1016.9
20170924015120 66 5 0.0 0.0 0.00 0.00 0.00 87 1016.9
20170924014608 66 5 0.0 0.0 0.00 0.00 0.00 87 1016.8
20170924014109 66 5 0.0 0.0 0.00 0.00 0.00 87 1016.7
20170924013604 66 5 0.0 0.0 0.00 0.00 0.00 87 1016.8
20170924013058 66 5 0.0 0.0 0.00 0.00 0.00 87 1016.8
20170924012549 66 5 0.0 0.0 0.00 0.00 0.00 86 1016.8
20170924012040 67 5 0.0 0.0 0.00 0.00 0.00 86 1016.8
20170924011528 67 5 0.0 0.0 0.00 0.00 0.00 85 1016.7
20170924011027 67 5 0.0 0.0 0.00 0.00 0.00 85 1016.7
20170924010528 67 5 0.0 0.0 0.00 0.00 0.00 85 1016.7
20170924010017 67 5 0.0 0.0 0.00 0.00 0.00 84 1016.7
20170924005516 67 5 0.0 0.0 0.00 0.00 0.00 84 1016.7
20170924005001 67 5 0.0 0.0 0.00 0.00 0.00 84 1016.7
20170924004456 68 5 0.0 0.0 0.00 0.00 0.00 84 1016.8
20170924003936 68 5 0.0 0.0 0.00 0.00 0.00 83 1016.8
20170924003436 68 5 0.0 0.0 0.00 0.00 0.00 83 1016.8
20170924002855 68 5 0.0 2.0 0.00 0.00 0.00 83 1016.8
20170924002356 68 5 0.0 2.0 0.00 0.00 0.00 82 1016.7
20170924001856 69 5 0.0 0.0 0.00 0.00 0.00 82 1016.7
20170924001343 69 5 0.0 0.0 0.00 0.00 0.00 81 1016.7
20170924000828 69 5 0.0 0.0 0.00 0.00 0.00 80 1016.6
20170924000328 70 5 0.0 0.0 0.00 0.00 0.00 80 1016.6
20170923235819 70 5 0.0 0.0 0.00 0.00 0.00 80 1016.6
20170923235259 70 5 0.0 0.0 0.00 0.00 0.00 79 1016.5
20170923234734 71 5 0.0 0.0 0.00 0.00 0.00 78 1016.5
20170923234224 71 5 0.0 0.0 0.00 0.00 0.00 78 1016.5
20170923233704 72 5 0.0 0.0 0.00 0.00 0.00 77 1016.4
20170923233201 72 5 0.0 0.0 0.00 0.00 0.00 77 1016.4
20170923232642 73 5 0.0 0.0 0.00 0.00 0.00 76 1016.3
20170923232138 73 5 0.0 0.0 0.00 0.00 0.00 75 1016.3
20170923231624 74 5 0.0 0.0 0.00 0.00 0.00 75 1016.3
20170923231110 74 5 0.0 0.0 0.00 0.00 0.00 74 1016.3
20170923230608 75 9 0.0 0.0 0.00 0.00 0.00 73 1016.3
20170923230110 75 9 0.0 0.0 0.00 0.00 0.00 73 1016.2
20170923225606 76 5 0.0 0.0 0.00 0.00 0.00 72 1016.2
20170923225108 76 5 0.0 0.0 0.00 0.00 0.00 72 1016.2
20170923224601 76 9 0.0 0.0 0.00 0.00 0.00 71 1016.2
20170923224054 77 9 0.0 0.0 0.00 0.00 0.00 70 1016.2
20170923223556 78 5 0.0 0.0 0.00 0.00 0.00 68 1016.2
20170923223055 78 5 0.0 0.0 0.00 0.00 0.00 66 1016.1
20170923222554 79 5 0.0 0.0 0.00 0.00 0.00 65 1016.1
20170923222054 79 5 0.0 0.0 0.00 0.00 0.00 64 1016.1
20170923221556 80 5 0.0 0.0 0.00 0.00 0.00 62 1016.0
20170923221102 81 9 0.0 0.0 0.00 0.00 0.00 60 1016.0
20170923220544 81 5 0.0 0.0 0.00 0.00 0.00 60 1016.0
20170923220046 82 9 0.0 0.0 0.00 0.00 0.00 59 1016.0
20170923215544 83 5 0.0 0.0 0.00 0.00 0.00 58 1016.0
20170923215042 83 5 0.0 0.0 0.00 0.00 0.00 55 1016.0
20170923214536 84 5 0.0 0.0 0.00 0.00 0.00 56 1016.0
20170923214032 85 9 0.0 0.0 0.00 0.00 0.00 54 1016.0
20170923213532 85 5 0.0 0.0 0.00 0.00 0.00 52 1016.0
20170923213032 86 5 0.0 0.0 0.00 0.00 0.00 49 1016.0
20170923212528 86 5 0.0 0.0 0.00 0.00 0.00 49 1016.0
20170923212030 86 5 0.0 0.0 0.00 0.00 0.00 49 1016.0